Time,TemperatureF,DewpointF,PressureIn,WindDirection,WindDirectionDegrees,WindSpeedMPH,WindSpeedGustMPH,Humidity,HourlyPrecipIn,Conditions,Clouds,dailyrainin,SoftwareType,DateUTC
2013-01-18 00:03:00,26.0,21.0,30.44,NW,312,0.0,2.0,81,0.00,,,0.00,,2013-01-18 05:03:00,
2013-01-18 00:12:00,26.0,21.0,30.44,NW,312,0.0,2.0,81,0.00,,,0.00,,2013-01-18 05:12:00,
2013-01-18 00:22:00,26.0,21.0,30.45,NW,312,0.0,3.0,81,0.00,,,0.00,,2013-01-18 05:22:00,
2013-01-18 00:33:00,26.0,21.0,30.45,NW,312,0.0,1.0,81,0.00,,,0.00,,2013-01-18 05:33:00,
2013-01-18 00:42:00,26.0,21.0,30.45,NW,312,0.0,1.0,81,0.00,,,0.00,,2013-01-18 05:42:00,
2013-01-18 00:53:00,26.0,21.0,30.45,NW,312,0.0,2.0,81,0.00,,,0.00,,2013-01-18 05:53:00,
2013-01-18 01:02:00,26.0,21.0,30.45,NW,312,0.0,2.0,80,0.00,,,0.00,,2013-01-18 06:02:00,
2013-01-18 01:12:00,26.0,21.0,30.45,NW,312,0.0,2.0,80,0.00,,,0.00,,2013-01-18 06:12:00,
2013-01-18 01:22:00,25.0,20.0,30.46,NW,312,0.0,1.0,81,0.00,,,0.00,,2013-01-18 06:22:00,
2013-01-18 01:32:00,25.0,20.0,30.46,NW,312,0.0,1.0,81,0.00,,,0.00,,2013-01-18 06:32:00,
2013-01-18 01:43:00,25.0,20.0,30.46,NW,312,0.0,1.0,81,0.00,,,0.00,,2013-01-18 06:43:00,
2013-01-18 01:52:00,24.0,19.0,30.47,NW,312,0.0,2.0,82,0.00,,,0.00,,2013-01-18 06:52:00,
2013-01-18 02:02:00,23.0,19.0,30.47,NW,312,0.0,2.0,84,0.00,,,0.00,,2013-01-18 07:02:00,
2013-01-18 02:12:00,23.0,19.0,30.47,NW,312,0.0,2.0,84,0.00,,,0.00,,2013-01-18 07:12:00,
2013-01-18 02:22:00,23.0,19.0,30.48,NW,312,0.0,0.0,84,0.00,,,0.00,,2013-01-18 07:22:00,
2013-01-18 02:32:00,23.0,19.0,30.48,NW,312,0.0,1.0,83,0.00,,,0.00,,2013-01-18 07:32:00,
2013-01-18 02:42:00,23.0,19.0,30.48,NW,312,0.0,1.0,83,0.00,,,0.00,,2013-01-18 07:42:00,
2013-01-18 02:52:00,23.0,19.0,30.49,NW,312,0.0,1.0,84,0.00,,,0.00,,2013-01-18 07:52:00,
2013-01-18 03:02:00,23.0,19.0,30.49,NW,312,0.0,1.0,86,0.00,,,0.00,,2013-01-18 08:02:00,
2013-01-18 03:12:00,23.0,19.0,30.49,NW,312,0.0,1.0,86,0.00,,,0.00,,2013-01-18 08:12:00,
2013-01-18 03:22:00,23.0,19.0,30.50,NW,312,0.0,1.0,86,0.00,,,0.00,,2013-01-18 08:22:00,
2013-01-18 03:32:00,23.0,19.0,30.51,NW,312,0.0,0.0,85,0.00,,,0.00,,2013-01-18 08:32:00,
2013-01-18 03:42:00,23.0,19.0,30.51,NW,312,0.0,0.0,85,0.00,,,0.00,,2013-01-18 08:42:00,
2013-01-18 03:53:00,23.0,19.0,30.50,NW,312,0.0,0.0,85,0.00,,,0.00,,2013-01-18 08:53:00,
2013-01-18 04:02:00,23.0,19.0,30.50,NW,312,0.0,0.0,85,0.00,,,0.00,,2013-01-18 09:02:00,
2013-01-18 04:12:00,23.0,19.0,30.50,NW,312,0.0,0.0,85,0.00,,,0.00,,2013-01-18 09:12:00,
2013-01-18 04:22:00,23.0,19.0,30.51,NW,312,0.0,1.0,85,0.00,,,0.00,,2013-01-18 09:22:00,
2013-01-18 04:32:00,23.0,19.0,30.50,NW,312,0.0,0.0,85,0.00,,,0.00,,2013-01-18 09:32:00,
2013-01-18 04:42:00,23.0,19.0,30.50,NW,312,0.0,0.0,85,0.00,,,0.00,,2013-01-18 09:42:00,
2013-01-18 04:52:00,23.0,19.0,30.49,NW,312,0.0,0.0,85,0.00,,,0.00,,2013-01-18 09:52:00,
2013-01-18 05:02:00,23.0,19.0,30.50,NW,312,0.0,0.0,85,0.00,,,0.00,,2013-01-18 10:02:00,
2013-01-18 05:12:00,23.0,19.0,30.50,NW,312,0.0,0.0,85,0.00,,,0.00,,2013-01-18 10:12:00,
2013-01-18 05:22:00,23.0,19.0,30.49,NW,312,0.0,0.0,84,0.00,,,0.00,,2013-01-18 10:22:00,
2013-01-18 05:32:00,23.0,19.0,30.48,NW,312,0.0,0.0,84,0.00,,,0.00,,2013-01-18 10:32:00,
2013-01-18 05:42:00,23.0,19.0,30.48,NW,312,0.0,0.0,84,0.00,,,0.00,,2013-01-18 10:42:00,
2013-01-18 05:52:00,23.0,19.0,30.49,NW,312,0.0,0.0,83,0.00,,,0.00,,2013-01-18 10:52:00,
2013-01-18 06:02:00,23.0,19.0,30.49,NW,312,0.0,0.0,83,0.00,,,0.00,,2013-01-18 11:02:00,
2013-01-18 06:12:00,23.0,19.0,30.49,NW,312,0.0,0.0,83,0.00,,,0.00,,2013-01-18 11:12:00,
2013-01-18 06:22:00,23.0,19.0,30.50,NW,312,0.0,0.0,85,0.00,,,0.00,,2013-01-18 11:22:00,
2013-01-18 06:32:00,22.0,18.0,30.51,NW,312,0.0,0.0,85,0.00,,,0.00,,2013-01-18 11:32:00,
2013-01-18 06:42:00,22.0,18.0,30.51,NW,312,0.0,0.0,85,0.00,,,0.00,,2013-01-18 11:42:00,
2013-01-18 06:53:00,22.0,18.0,30.51,NW,312,0.0,0.0,85,0.00,,,0.00,,2013-01-18 11:53:00,
2013-01-18 07:02:00,22.0,18.0,30.50,NW,312,0.0,0.0,85,0.00,,,0.00,,2013-01-18 12:02:00,
2013-01-18 07:12:00,22.0,18.0,30.50,NW,312,0.0,0.0,85,0.00,,,0.00,,2013-01-18 12:12:00,
2013-01-18 07:22:00,22.0,18.0,30.49,NW,312,0.0,1.0,85,0.00,,,0.00,,2013-01-18 12:22:00,
2013-01-18 07:32:00,22.0,18.0,30.49,NW,312,0.0,0.0,85,0.00,,,0.00,,2013-01-18 12:32:00,
2013-01-18 07:42:00,22.0,18.0,30.49,NW,312,0.0,0.0,85,0.00,,,0.00,,2013-01-18 12:42:00,
2013-01-18 07:53:00,22.0,18.0,30.49,NW,312,0.0,2.0,84,0.00,,,0.00,,2013-01-18 12:53:00,
2013-01-18 08:03:00,23.0,19.0,30.49,NW,312,0.0,2.0,85,0.00,,,0.00,,2013-01-18 13:03:00,
2013-01-18 08:12:00,23.0,19.0,30.49,NW,312,0.0,2.0,85,0.00,,,0.00,,2013-01-18 13:12:00,
2013-01-18 08:23:00,24.0,19.0,30.49,NW,316,0.0,2.0,82,0.00,,,0.00,,2013-01-18 13:23:00,
2013-01-18 08:33:00,23.0,18.0,30.50,NW,318,0.0,0.0,82,0.00,,,0.00,,2013-01-18 13:33:00,
2013-01-18 08:43:00,23.0,18.0,30.50,NW,318,0.0,0.0,82,0.00,,,0.00,,2013-01-18 13:43:00,
2013-01-18 08:53:00,23.0,18.0,30.51,WSW,257,0.0,3.0,82,0.00,,,0.00,,2013-01-18 13:53:00,
2013-01-18 09:03:00,24.0,19.0,30.51,South,175,0.0,3.0,82,0.00,,,0.00,,2013-01-18 14:03:00,
2013-01-18 09:12:00,24.0,19.0,30.51,South,175,0.0,3.0,82,0.00,,,0.00,,2013-01-18 14:12:00,
2013-01-18 09:22:00,25.0,20.0,30.51,South,173,1.0,4.0,82,0.00,,,0.00,,2013-01-18 14:22:00,
2013-01-18 09:33:00,27.0,22.0,30.51,South,173,0.0,4.0,81,0.00,,,0.00,,2013-01-18 14:33:00,
2013-01-18 09:42:00,27.0,22.0,30.51,South,173,0.0,4.0,81,0.00,,,0.00,,2013-01-18 14:42:00,
2013-01-18 09:53:00,28.0,22.0,30.52,South,169,0.0,4.0,79,0.00,,,0.00,,2013-01-18 14:53:00,
2013-01-18 10:03:00,29.0,23.0,30.53,SSE,168,1.0,5.0,78,0.00,,,0.00,,2013-01-18 15:03:00,
2013-01-18 10:12:00,29.0,23.0,30.53,SSE,168,1.0,5.0,78,0.00,,,0.00,,2013-01-18 15:12:00,
2013-01-18 10:23:00,29.0,23.0,30.53,SSE,154,1.0,5.0,79,0.00,,,0.00,,2013-01-18 15:23:00,
2013-01-18 10:33:00,29.0,23.0,30.53,SSE,158,1.0,6.0,77,0.00,,,0.00,,2013-01-18 15:33:00,
2013-01-18 10:43:00,29.0,23.0,30.53,SSE,158,1.0,6.0,77,0.00,,,0.00,,2013-01-18 15:43:00,
2013-01-18 10:53:00,30.0,23.0,30.53,SSE,153,3.0,9.0,75,0.00,,,0.00,,2013-01-18 15:53:00,
2013-01-18 11:03:00,31.0,24.0,30.53,SSE,149,2.0,6.0,75,0.00,,,0.00,,2013-01-18 16:03:00,
2013-01-18 11:12:00,31.0,24.0,30.53,SSE,149,2.0,6.0,75,0.00,,,0.00,,2013-01-18 16:12:00,
2013-01-18 11:23:00,31.0,24.0,30.53,SE,131,2.0,9.0,74,0.00,,,0.00,,2013-01-18 16:23:00,
2013-01-18 11:33:00,31.0,23.0,30.53,SSE,161,1.0,7.0,73,0.00,,,0.00,,2013-01-18 16:33:00,
2013-01-18 11:42:00,31.0,23.0,30.53,SSE,161,1.0,7.0,73,0.00,,,0.00,,2013-01-18 16:42:00,
2013-01-18 11:53:00,32.0,24.0,30.52,SSE,156,1.0,6.0,71,0.00,,,0.00,,2013-01-18 16:53:00,
2013-01-18 12:03:00,32.0,24.0,30.51,SSE,157,2.0,7.0,71,0.00,,,0.00,,2013-01-18 17:03:00,
2013-01-18 12:13:00,32.0,24.0,30.51,SSE,157,2.0,7.0,71,0.00,,,0.00,,2013-01-18 17:13:00,
2013-01-18 12:23:00,33.0,23.0,30.50,South,179,2.0,9.0,67,0.00,,,0.00,,2013-01-18 17:23:00,
2013-01-18 12:33:00,34.0,25.0,30.49,South,171,1.0,6.0,68,0.00,,,0.00,,2013-01-18 17:33:00,
2013-01-18 12:42:00,34.0,25.0,30.49,South,171,1.0,6.0,68,0.00,,,0.00,,2013-01-18 17:42:00,
2013-01-18 12:53:00,34.0,23.0,30.48,South,170,2.0,7.0,65,0.00,,,0.00,,2013-01-18 17:53:00,
2013-01-18 13:03:00,34.0,23.0,30.46,South,175,4.0,11.0,65,0.00,,,0.00,,2013-01-18 18:03:00,
2013-01-18 13:12:00,34.0,23.0,30.46,South,175,4.0,11.0,65,0.00,,,0.00,,2013-01-18 18:12:00,
2013-01-18 13:23:00,35.0,24.0,30.45,SSE,160,3.0,9.0,63,0.00,,,0.00,,2013-01-18 18:23:00,
2013-01-18 13:33:00,35.0,23.0,30.44,SW,222,4.0,8.0,60,0.00,,,0.00,,2013-01-18 18:33:00,
2013-01-18 13:43:00,35.0,23.0,30.44,SW,222,4.0,8.0,60,0.00,,,0.00,,2013-01-18 18:43:00,
2013-01-18 13:53:00,36.0,23.0,30.44,South,181,1.0,7.0,60,0.00,,,0.00,,2013-01-18 18:53:00,
2013-01-18 14:03:00,38.0,24.0,30.43,South,187,2.0,9.0,56,0.00,,,0.00,,2013-01-18 19:03:00,
2013-01-18 14:12:00,38.0,24.0,30.43,South,187,2.0,9.0,56,0.00,,,0.00,,2013-01-18 19:12:00,
2013-01-18 14:22:00,38.0,23.0,30.42,SSW,192,2.0,8.0,55,0.00,,,0.00,,2013-01-18 19:22:00,
2013-01-18 14:33:00,38.0,22.0,30.41,South,175,3.0,10.0,53,0.00,,,0.00,,2013-01-18 19:33:00,
2013-01-18 14:42:00,38.0,22.0,30.41,South,175,3.0,10.0,53,0.00,,,0.00,,2013-01-18 19:42:00,
2013-01-18 14:53:00,39.0,22.0,30.40,South,181,4.0,12.0,51,0.00,,,0.00,,2013-01-18 19:53:00,
2013-01-18 15:03:00,40.0,22.0,30.40,South,173,4.0,10.0,49,0.00,,,0.00,,2013-01-18 20:03:00,
2013-01-18 15:12:00,40.0,22.0,30.40,South,173,4.0,10.0,49,0.00,,,0.00,,2013-01-18 20:12:00,
2013-01-18 15:23:00,40.0,23.0,30.39,South,191,3.0,8.0,50,0.00,,,0.00,,2013-01-18 20:23:00,
2013-01-18 15:33:00,41.0,23.0,30.38,SSE,157,3.0,10.0,48,0.00,,,0.00,,2013-01-18 20:33:00,
2013-01-18 15:42:00,41.0,23.0,30.38,SSE,157,3.0,10.0,48,0.00,,,0.00,,2013-01-18 20:42:00,
2013-01-18 15:53:00,41.0,23.0,30.38,South,191,3.0,10.0,48,0.00,,,0.00,,2013-01-18 20:53:00,
2013-01-18 16:03:00,41.0,23.0,30.37,SSE,168,4.0,15.0,48,0.00,,,0.00,,2013-01-18 21:03:00,
2013-01-18 16:12:00,41.0,23.0,30.37,SSE,168,4.0,15.0,48,0.00,,,0.00,,2013-01-18 21:12:00,
2013-01-18 16:23:00,41.0,24.0,30.36,South,176,4.0,11.0,50,0.00,,,0.00,,2013-01-18 21:23:00,
2013-01-18 16:33:00,41.0,24.0,30.36,SSE,158,3.0,11.0,51,0.00,,,0.00,,2013-01-18 21:33:00,
2013-01-18 16:42:00,41.0,24.0,30.36,SSE,158,3.0,11.0,51,0.00,,,0.00,,2013-01-18 21:42:00,
2013-01-18 16:53:00,41.0,24.0,30.35,SSE,168,2.0,11.0,51,0.00,,,0.00,,2013-01-18 21:53:00,
2013-01-18 17:03:00,41.0,24.0,30.35,South,186,4.0,14.0,51,0.00,,,0.00,,2013-01-18 22:03:00,
2013-01-18 17:12:00,41.0,24.0,30.35,South,186,4.0,14.0,51,0.00,,,0.00,,2013-01-18 22:12:00,
2013-01-18 17:32:00,41.0,25.0,30.33,SSE,151,2.0,10.0,53,0.00,,,0.00,,2013-01-18 22:32:00,
2013-01-18 17:42:00,41.0,25.0,30.33,SSE,151,2.0,10.0,53,0.00,,,0.00,,2013-01-18 22:42:00,
2013-01-18 17:53:00,40.0,25.0,30.33,South,170,3.0,8.0,55,0.00,,,0.00,,2013-01-18 22:53:00,
2013-01-18 18:02:00,39.0,25.0,30.33,SSE,162,2.0,9.0,57,0.00,,,0.00,,2013-01-18 23:02:00,
2013-01-18 18:12:00,39.0,25.0,30.33,SSE,162,2.0,9.0,57,0.00,,,0.00,,2013-01-18 23:12:00,
2013-01-18 18:22:00,39.0,26.0,30.32,SSE,168,3.0,9.0,59,0.00,,,0.00,,2013-01-18 23:22:00,
2013-01-18 18:32:00,38.0,25.0,30.32,SSE,167,2.0,10.0,60,0.00,,,0.00,,2013-01-18 23:32:00,
2013-01-18 18:42:00,38.0,25.0,30.32,SSE,167,2.0,10.0,60,0.00,,,0.00,,2013-01-18 23:42:00,
2013-01-18 18:53:00,38.0,26.0,30.32,South,172,1.0,7.0,62,0.00,,,0.00,,2013-01-18 23:53:00,
2013-01-18 19:02:00,38.0,27.0,30.32,South,170,3.0,10.0,63,0.00,,,0.00,,2013-01-19 00:02:00,
2013-01-18 19:12:00,38.0,27.0,30.32,South,170,3.0,10.0,63,0.00,,,0.00,,2013-01-19 00:12:00,
2013-01-18 19:22:00,37.0,26.0,30.32,SSE,163,2.0,7.0,64,0.00,,,0.00,,2013-01-19 00:22:00,
2013-01-18 19:32:00,37.0,27.0,30.31,SSE,159,3.0,9.0,66,0.00,,,0.00,,2013-01-19 00:32:00,
2013-01-18 19:42:00,37.0,27.0,30.31,SSE,159,3.0,9.0,66,0.00,,,0.00,,2013-01-19 00:42:00,
2013-01-18 19:53:00,37.0,26.0,30.31,SSE,163,4.0,13.0,65,0.00,,,0.00,,2013-01-19 00:53:00,
2013-01-18 20:02:00,38.0,28.0,30.30,South,170,4.0,14.0,66,0.00,,,0.00,,2013-01-19 01:02:00,
2013-01-18 20:12:00,38.0,28.0,30.30,South,170,4.0,14.0,66,0.00,,,0.00,,2013-01-19 01:12:00,
2013-01-18 20:22:00,38.0,28.0,30.30,South,175,4.0,11.0,66,0.00,,,0.00,,2013-01-19 01:22:00,
2013-01-18 20:32:00,38.0,28.0,30.30,South,169,3.0,10.0,67,0.00,,,0.00,,2013-01-19 01:32:00,
2013-01-18 20:42:00,38.0,28.0,30.30,South,169,3.0,10.0,67,0.00,,,0.00,,2013-01-19 01:42:00,
2013-01-18 20:53:00,38.0,28.0,30.29,South,186,3.0,9.0,67,0.00,,,0.00,,2013-01-19 01:53:00,
2013-01-18 21:02:00,38.0,28.0,30.28,South,178,5.0,12.0,67,0.00,,,0.00,,2013-01-19 02:02:00,
2013-01-18 21:12:00,38.0,28.0,30.28,South,178,5.0,12.0,67,0.00,,,0.00,,2013-01-19 02:12:00,
2013-01-18 21:22:00,39.0,29.0,30.28,South,191,5.0,10.0,67,0.00,,,0.00,,2013-01-19 02:22:00,
2013-01-18 21:33:00,39.0,29.0,30.27,South,177,5.0,12.0,67,0.00,,,0.00,,2013-01-19 02:33:00,
2013-01-18 21:42:00,39.0,29.0,30.27,South,177,5.0,12.0,67,0.00,,,0.00,,2013-01-19 02:42:00,
2013-01-18 21:53:00,39.0,29.0,30.26,South,186,6.0,16.0,66,0.00,,,0.00,,2013-01-19 02:53:00,
2013-01-18 22:02:00,39.0,29.0,30.26,South,191,5.0,14.0,66,0.00,,,0.00,,2013-01-19 03:02:00,
2013-01-18 22:12:00,39.0,29.0,30.26,South,191,5.0,14.0,66,0.00,,,0.00,,2013-01-19 03:12:00,
2013-01-18 22:22:00,39.0,28.0,30.25,SSW,195,6.0,12.0,65,0.00,,,0.00,,2013-01-19 03:22:00,
2013-01-18 22:32:00,40.0,29.0,30.25,SSW,193,4.0,12.0,64,0.00,,,0.00,,2013-01-19 03:32:00,
2013-01-18 22:43:00,40.0,29.0,30.25,SSW,193,4.0,12.0,64,0.00,,,0.00,,2013-01-19 03:43:00,
2013-01-18 22:52:00,40.0,28.0,30.24,SSW,197,4.0,11.0,63,0.00,,,0.00,,2013-01-19 03:52:00,
2013-01-18 23:02:00,40.0,28.0,30.24,South,190,5.0,12.0,61,0.00,,,0.00,,2013-01-19 04:02:00,
2013-01-18 23:12:00,40.0,28.0,30.24,South,190,5.0,12.0,61,0.00,,,0.00,,2013-01-19 04:12:00,
2013-01-18 23:22:00,41.0,28.0,30.23,South,190,6.0,15.0,59,0.00,,,0.00,,2013-01-19 04:22:00,
2013-01-18 23:32:00,41.0,27.0,30.23,SSW,196,4.0,12.0,57,0.00,,,0.00,,2013-01-19 04:32:00,
2013-01-18 23:42:00,41.0,27.0,30.23,SSW,196,4.0,12.0,57,0.00,,,0.00,,2013-01-19 04:42:00,
2013-01-18 23:53:00,41.0,27.0,30.22,SSW,205,5.0,13.0,56,0.00,,,0.00,,2013-01-19 04:53:00,